Location: Fredericksburg
(30.2750°N, 98.8720°W)
Time: 12:20:39
(UTC-06:00)

Daily predictions for brighter satellites

Satellite Brightness Start Highest point End
(mag) Time Altitude Azimuth Time Altitude Azimuth Time Altitude Azimuth
BREEZE M DEB (TANK) 4.0 17:42:55 10° SW 17:59:31 84° SE 18:03:41 10° NE
Cosmos 1633 4.3 17:56:55 10° NNW 18:00:14 36° W 18:03:31 10° SSW
SMAP 3.1 17:57:54 10° SSE 18:02:27 59° ENE 18:07:01 10° N
Hubble Space Telescope 2.3 17:58:47 10° W 18:02:34 34° SSW 18:06:20 10° SE
SL-8 Rocket 4.0 17:56:37 10° N 18:02:43 63° E 18:08:47 10° SSE
Cosmos 158 Rocket 4.0 17:57:55 10° NNW 18:03:15 72° ENE 18:08:25 10° SSE
Okean 1 4.0 18:00:24 10° SSE 18:04:04 34° E 18:07:45 10° NNE
CRYOSAT 2 4.5 18:03:17 10° N 18:08:12 83° W 18:13:04 10° S
Meteor 2-19 Rocket 4.4 18:02:37 10° N 18:08:36 62° E 18:14:33 10° SSE
Cosmos 1536 4.1 18:06:50 10° NNW 18:10:44 47° W 18:14:39 10° SSW
SKYMED 2 4.1 18:07:45 10° NNE 18:11:49 39° E 18:15:52 10° SSE
Cosmos 1455 Rocket 3.4 18:07:59 10° N 18:12:10 41° E 18:16:21 10° SSE
Meteor 1-18 Rocket 4.2 18:07:07 10° S 18:12:40 72° E 18:18:20 10° NNE
Cosmos 2366 rocket 4.1 18:07:13 10° N 18:13:26 55° E 18:19:33 10° SSE
OTV 4 1.0 18:10:39 10° NW 18:13:31 39° NNE 18:16:04 12° E
Cosmos 1812 2.6 18:12:18 10° S 18:16:08 79° E 18:19:59 10° N
Cosmos 2218 Rocket 4.0 18:10:29 10° N 18:16:43 68° E 18:22:51 10° SSE
Cosmos 1959 Rocket 4.5 18:12:02 10° N 18:18:13 71° E 18:24:26 10° SSE
Delta 2 Rocket 3.3 18:14:34 10° WSW 18:18:17 71° SSE 18:21:53 14° ENE
Cosmos 1346 Rocket 3.3 18:18:47 10° SSE 18:22:26 37° E 18:26:03 10° NNE
Cosmos 1844 Rocket 4.3 18:22:05 10° SW 18:27:04 33° WNW 18:32:06 10° N
ATLAS 3B CENTAUR R/B 4.2 18:07:30 10° WSW 18:31:18 76° S 18:38:07 16° E
SPOT 3 Rocket 4.1 18:27:52 10° S 18:33:00 62° WSW 18:38:08 10° NNW
NOSS 2-1 (E) 4.3 18:30:52 10° S 18:34:11 27° ESE 18:35:45 21° ENE
CZ-4 R/B 3.2 18:30:52 10° SSW 18:34:44 36° W 18:38:37 10° NNW
MSX 3.8 18:29:37 10° SSE 18:35:22 82° ENE 18:41:08 10° N
CZ-3B DEB 3.5 18:32:57 10° W 18:36:04 26° NNW 18:42:20 10° NNE
Cosmos 2297 3.7 18:36:49 10° S 18:42:21 58° ESE 18:47:18 13° NNE
TIMED 4.5 18:46:09 10° S 18:50:27 64° ESE 18:53:21 20° NNE
IDEFIX/ARIANE 42P 4.0 18:46:46 10° SSW 18:51:38 41° W 18:56:31 10° NNW
GRACE-2 3.7 18:49:27 10° S 18:52:12 67° E 18:52:54 44° NNE
GRACE-1 3.7 18:49:52 10° S 18:52:37 70° E 18:53:23 42° NNE
Cosmos 1975 2.7 18:48:53 10° N 18:52:57 87° E 18:56:59 10° S
Cosmos 2278 Rocket 3.3 18:52:28 10° SW 18:57:47 42° WNW 19:03:08 10° N
COSMO-SKYMED 1 3.4 18:55:38 10° N 18:59:50 49° WNW 19:04:00 10° SSW
Meteor 1-19 Rocket 4.2 18:54:56 10° S 19:00:34 64° E 19:06:20 10° NNE
Tiangong 1 2.2 18:58:26 10° W 19:01:12 32° NNW 19:01:34 30° N
Meteor 2-21 4.3 18:56:04 10° N 19:02:16 75° E 19:08:21 10° S
Nadezhda 3 Rocket 4.0 18:57:47 10° S 19:03:57 86° W 19:10:13 10° N
Cosmos 1484 Rocket 3.7 19:06:27 10° S 19:10:06 46° W 19:13:43 10° NNW
Cosmos 494 Rocket 4.5 19:05:28 10° NNW 19:10:38 62° WSW 19:15:49 10° S
Meteor 1-13 Rocket 4.4 19:11:11 10° SSW 19:16:45 71° W 19:22:29 10° N
ATLAS 2AS CENTAUR R/B 3.2 19:14:50 10° NNW 19:22:43 70° WSW 19:29:56 10° SSE
Meteor 2-14 Rocket 4.3 19:19:02 10° N 19:25:12 85° E 19:31:20 10° S
NOAA 12 4.0 19:23:06 10° SSE 19:28:24 88° WSW 19:33:41 10° NNW
Cosmos 2082 Rocket 3.0 19:23:39 10° N 19:27:09 34° NNE 19:27:09 34° NNE
Cosmos 1025 Rocket 2.9 19:25:23 10° S 19:29:43 86° W 19:29:53 82° NNW
Meteor 1-23 Rocket 4.1 19:25:29 10° S 19:31:12 74° E 19:32:43 50° NNE
Cosmos 1833 Rocket 4.2 19:27:26 10° N 19:29:26 21° N 19:29:26 21° N
METEOR-M 4.0 19:27:47 10° SSE 19:33:06 85° ENE 19:38:28 10° N
Cosmos 921 Rocket 4.2 19:32:59 10° SW 19:36:55 39° WNW 19:38:26 29° NNW
Hubble Space Telescope 3.6 19:42:04 10° SW 19:43:19 11° SSW 19:44:34 10° S
Meteor 2-4 Rocket 4.0 19:43:17 10° SSW 19:48:39 62° W 19:50:24 40° NNW
FALCON 9 R/B 3.0 19:30:16 10° W 19:49:44 68° N 19:51:04 58° NE
OTV 4 3.8 19:47:14 10° W 19:47:44 13° W 19:47:44 13° W
GEOS 3 Rocket 4.1 19:57:50 46° SSW 19:58:53 54° WSW 20:03:54 10° NW
Aurora 2 Rocket 4.3 19:56:28 10° WSW 20:06:46 62° S 20:07:54 58° SSE
Cosmos 1934 Rocket 4.2 20:04:16 10° NNW 20:10:24 66° W 20:16:37 10° S
